Regional Weather Roundup
Issued by NWS Little Rock, AR

Home | Current Version | Previous Version | Graphics & Text | Print | Product List | Glossary On
Versions: 1 2 3 4 5 6 7 8 9 10 11 12 13 14 15 16 17 18 19 20 21 22 23 24 25 26 27 28 29 30 31 32 33 34 35 36 37 38 39 40 41 42 43 44 45 46 47 48 49 50
000
ASUS44 KLZK 281805
RWRLZK

WEATHER ROUNDUP FOR ARKANSAS
NATIONAL WEATHER SERVICE LITTLE ROCK AR
1200 PM CST FRI NOV 28 2014

NOTE: "FAIR" INDICATES FEW OR NO CLOUDS BELOW 12,000 FEET WITH NO
SIGNIFICANT WEATHER AND/OR OBSTRUCTIONS TO VISIBILITY.

ARZ001-003-010-029-281900-
NORTHWEST ARKANSAS

CITY           SKY/WX    TMP DP  RH WIND       PRES   REMARKS
FAYETTEVILLE   SUNNY     57  34  41 S21       30.09F
6HR MIN TEMP:  38; 6HR MAX TEMP:  57;

FORT SMITH     SUNNY     56  35  45 NE9       30.15F
6HR MIN TEMP:  31; 6HR MAX TEMP:  56;

HARRISON       SUNNY     55  32  41 S9        30.09F
6HR MIN TEMP:  35; 6HR MAX TEMP:  56;

BENTONVILLE    SUNNY     57  34  41 SW20G28   30.08F
6HR MIN TEMP:  36; 6HR MAX TEMP:  57;

ROGERS         SUNNY     57  33  40 S22G30    30.07F
6HR MIN TEMP:  36; 6HR MAX TEMP:  57;

SILOAM SPGS    SUNNY     55  34  44 S22       30.09F
6HR MIN TEMP:  37; 6HR MAX TEMP:  55;

HIGHFILL       SUNNY     56  34  43 S18G31    30.07F
6HR MIN TEMP:  34; 6HR MAX TEMP:  56;

SPRINGDALE     SUNNY     55  32  41 SW17G29   30.10F
$$

ARZ004-005-016-281900-
NORTH CENTRAL ARKANSAS

CITY           SKY/WX    TMP DP  RH WIND       PRES   REMARKS
BATESVILLE     SUNNY     50  30  46 S13G23    30.22F
6HR MIN TEMP:  32; 6HR MAX TEMP:  50;

FLIPPIN        SUNNY     54  30  40 S14       30.13F
6HR MIN TEMP:  32; 6HR MAX TEMP:  54;

MTN HOME       SUNNY     54  31  41 SW12G20   30.11F
$$

ARZ040-041-281900-
WEST CENTRAL ARKANSAS

CITY           SKY/WX    TMP DP  RH WIND       PRES   REMARKS
MENA           SUNNY     57  36  44 S5        30.19F
MOUNT IDA      SUNNY     55  33  43 VRB5      30.18F
6HR MIN TEMP:  35; 6HR MAX TEMP:  55;

$$

ARZ009-017-025-026-028-281900-
NORTHEAST ARKANSAS

CITY           SKY/WX    TMP DP  RH WIND       PRES   REMARKS
CORNING        FAIR      48  32  53 S18       30.23F
JONESBORO      SUNNY     46  35  65 S16       30.25F
6HR MIN TEMP:  29; 6HR MAX TEMP:  46;

NEWPORT        SUNNY     50  33  51 S18       30.25F
6HR MIN TEMP:  30; 6HR MAX TEMP:  50;

WALNUT RIDGE   SUNNY     46  30  53 S22G28    30.24F
6HR MIN TEMP:  28; 6HR MAX TEMP:  46;

BLYTHEVILLE      N/A     48  31  51 S14       30.28F
6HR MIN TEMP:  37; 6HR MAX TEMP:  53;

$$

ARZ022-023-033-042-044-281900-
CENTRAL ARKANSAS

CITY           SKY/WX    TMP DP  RH WIND       PRES   REMARKS
LITTLE ROCK    MOSUNNY   54  29  38 S12       30.26F
6HR MIN TEMP:  29; 6HR MAX TEMP:  54;

N LITTLE ROCK  MOSUNNY   50  34  53 S9G17     30.26F
6HR MIN TEMP:  32; 6HR MAX TEMP:  51;

JACKSONVILLE   SUNNY     51  33  50 S9        30.24F
6HR MIN TEMP:  25; 6HR MAX TEMP:  51;

SEARCY         SUNNY     51  33  50 S12       30.26F
6HR MIN TEMP:  25; 6HR MAX TEMP:  52;

HOT SPRINGS    SUNNY     51  32  48 SW7       30.24F
6HR MIN TEMP:  35; 6HR MAX TEMP:  52;

RUSSELLVILLE   SUNNY     52  33  48 VRB7      30.19F
6HR MIN TEMP:  29; 6HR MAX TEMP:  52;

CLINTON        FAIR      48  32  53 S7        30.23F
$$

ARZ036-281900-
EAST ARKANSAS

CITY           SKY/WX    TMP DP  RH WIND       PRES   REMARKS
WEST MEMPHIS   SUNNY     49  30  48 S20G29    30.27F
6HR MIN TEMP:  26; 6HR MAX TEMP:  49;

$$

ARZ050-053-066-070-073-281900-
SOUTHWEST ARKANSAS

CITY           SKY/WX    TMP DP  RH WIND       PRES   REMARKS
ARKADELPHIA    FAIR      55  36  49 S10       30.26F
6HR MIN TEMP:  27; 6HR MAX TEMP:  55;

CAMDEN         SUNNY     57  30  35 MISG      30.29F
TEXARKANA      SUNNY     57  35  43 S12       30.25F
6HR MIN TEMP:  33; 6HR MAX TEMP:  57;

EL DORADO      SUNNY     55  33  43 S13       30.28F
6HR MIN TEMP:  31; 6HR MAX TEMP:  55;

DE QUEEN       SUNNY     55  37  50 SW9       30.21F
6HR MIN TEMP:  28; 6HR MAX TEMP:  55;

$$

ARZ056-057-069-281900-
SOUTHEAST ARKANSAS

CITY           SKY/WX    TMP DP  RH WIND       PRES   REMARKS
PINE BLUFF     SUNNY     53  31  42 S13       30.28F
6HR MIN TEMP:  30; 6HR MAX TEMP:  53;

STUTTGART        N/A     50  34  53 S15       30.28F VSB 1/2
6HR MIN TEMP:  34; 6HR MAX TEMP:  50;

MONTICELLO     SUNNY     54  31  41 S9        30.30F
6HR MIN TEMP:  33; 6HR MAX TEMP:  54;


$$





USA.gov is the U.S. government's official web portal to all federal, state and local government web resources and services.